Location: Newark
(39.6867°N, 100.6772°W)
Time: 03:36:50
(UTC+00:00)

Vanguard 1 - Pass Details

Date: 14 October 2019
Orbit: 652 x 3831 km, 34.2° (Epoch: 13 November)

Event Time Altitude Azimuth Distance (km) Brightness Sun altitude
Rises 10:12:36 0° 283° (WNW) 7,340 - -31.1°
Reaches altitude 10° 10:18:17 10° 274° (W) 6,617 - -30.1°
Exits shadow 10:33:37 29° 232° (SW) 5,467 13.3 -27.2°
Maximum altitude 10:35:35 29° 225° (SW) 5,433 13.3 -26.8°
Drops below altitude 10° 10:52:18 10° 174° (S) 6,295 14.1 -23.7°
Sets 10:57:41 0° 163° (SSE) 6,934 14.5 -22.7°
